,,Stat6,,Stat2,,Stat8,,Stat9,,Stat10,,Wind1,,Wind1,
time,status,PA1M_AVG,status,PR1M_SUM,status,RH1M_AVG,status,SR1M_AVG,status,TA1M_AVG,status,W1dAve1m,status,W1sAve1m,
2005-04-02, 00:00:00,VALID,917.774,VALID,0,VALID,97.9199,VALID,0.0169808,VALID,20.6588,VALID,238,VALID,1.1149,
2005-04-02, 00:01:00,VALID,917.799,VALID,0,VALID,97.1595,VALID,0,VALID,20.6814,VALID,220,VALID,1.23001,
2005-04-02, 00:02:00,VALID,917.782,VALID,0,VALID,97.1213,VALID,0.0169808,VALID,20.7135,VALID,196,VALID,0.942264,
2005-04-02, 00:03:00,VALID,917.779,VALID,0,VALID,97.4049,VALID,0.0169808,VALID,20.7328,VALID,204,VALID,0.850632,
2005-04-02, 00:04:00,VALID,917.765,VALID,0,VALID,97.6961,VALID,0,VALID,20.7388,VALID,195,VALID,0.763338,
2005-04-02, 00:05:00,VALID,917.786,VALID,0,VALID,97.6859,VALID,0.0339617,VALID,20.7522,VALID,191,VALID,0.662064,
2005-04-02, 00:06:00,VALID,917.81,VALID,0,VALID,97.5702,VALID,0.0339617,VALID,20.7197,VALID,189,VALID,0.263477,
2005-04-02, 00:07:00,VALID,917.786,VALID,0,VALID,97.5028,VALID,0.0509425,VALID,20.7067,VALID,223,VALID,0.905362,
2005-04-02, 00:08:00,VALID,917.746,VALID,0,VALID,96.8746,VALID,0.0679233,VALID,20.658,VALID,197,VALID,1.05822,
2005-04-02, 00:09:00,VALID,917.717,VALID,0,VALID,96.4118,VALID,0.0339617,VALID,20.6521,VALID,218,VALID,0.979403,
2005-04-02, 00:10:00,VALID,917.696,VALID,0,VALID,96.4092,VALID,0.0169808,VALID,20.6489,VALID,193,VALID,0.72516,
2005-04-02, 00:11:00,VALID,917.68,VALID,0,VALID,96.1905,VALID,0.0169808,VALID,20.626,VALID,197,VALID,0.795015,
2005-04-02, 00:12:00,VALID,917.671,VALID,0,VALID,96.3457,VALID,0,VALID,20.623,VALID,218,VALID,0.817951,
2005-04-02, 00:13:00,VALID,917.665,VALID,0,VALID,96.614,VALID,0.0679233,VALID,20.594,VALID,238,VALID,0.638822,
2005-04-02, 00:14:00,VALID,917.651,VALID,0,VALID,95.9324,VALID,0.0509425,VALID,20.5552,VALID,229,VALID,1.35882,
2005-04-02, 00:15:00,VALID,917.682,VALID,0,VALID,95.8853,VALID,0.0849042,VALID,20.5612,VALID,220,VALID,1.0252,
2005-04-02, 00:16:00,VALID,917.699,VALID,0,VALID,96.1715,VALID,0,VALID,20.5646,VALID,227,VALID,0.915799,
2005-04-02, 00:17:00,VALID,917.709,VALID,0,VALID,96.0417,VALID,0.0339617,VALID,20.5488,VALID,247,VALID,1.36181,
2005-04-02, 00:18:00,VALID,917.71,VALID,0,VALID,96.3558,VALID,0.0169808,VALID,20.5326,VALID,247,VALID,0.736753,
2005-04-02, 00:19:00,VALID,917.729,VALID,0,VALID,96.1854,VALID,-0.0509425,VALID,20.5175,VALID,213,VALID,0.897249,
2005-04-02, 00:20:00,VALID,917.737,VALID,0,VALID,94.704,VALID,-0.0339617,VALID,20.4855,VALID,247,VALID,2.7221,
2005-04-02, 00:21:00,VALID,917.765,VALID,0,VALID,94.1356,VALID,-0.0849042,VALID,20.4792,VALID,234,VALID,1.18785,
2005-04-02, 00:22:00,VALID,917.756,VALID,0,VALID,95.0537,VALID,-0.0849042,VALID,20.4795,VALID,232,VALID,1.48196,
2005-04-02, 00:23:00,VALID,917.767,VALID,0,VALID,95.5738,VALID,-0.0849042,VALID,20.4634,VALID,238,VALID,1.18368,
2005-04-02, 00:24:00,VALID,917.76,VALID,0,VALID,95.3703,VALID,-0.0679233,VALID,20.4114,VALID,239,VALID,1.00915,
2005-04-02, 00:25:00,VALID,917.741,VALID,0,VALID,95.4772,VALID,-0.0849042,VALID,20.3853,VALID,208,VALID,0.541109,
2005-04-02, 00:26:00,VALID,917.746,VALID,0,VALID,95.0588,VALID,-0.0509425,VALID,20.3665,VALID,233,VALID,1.21801,
2005-04-02, 00:27:00,VALID,917.761,VALID,0,VALID,94.5692,VALID,-0.0509425,VALID,20.3501,VALID,229,VALID,1.29439,
2005-04-02, 00:28:00,VALID,917.737,VALID,0,VALID,94.1827,VALID,-0.0679233,VALID,20.3436,VALID,231,VALID,0.93045,
2005-04-02, 00:29:00,VALID,917.751,VALID,0,VALID,94.367,VALID,-0.0509425,VALID,20.3374,VALID,225,VALID,1.27493,
2005-04-02, 00:30:00,VALID,917.716,VALID,0,VALID,94.4573,VALID,-0.0849042,VALID,20.3213,VALID,220,VALID,1.34624,
2005-04-02, 00:31:00,VALID,917.706,VALID,0,VALID,93.8737,VALID,-0.0849042,VALID,20.3088,VALID,169,VALID,1.07493,
2005-04-02, 00:32:00,VALID,917.709,VALID,0,VALID,94.4268,VALID,-0.101885,VALID,20.3083,VALID,237,VALID,0.901155,
2005-04-02, 00:33:00,VALID,917.688,VALID,0,VALID,94.6888,VALID,-0.101885,VALID,20.2822,VALID,249,VALID,1.14764,
2005-04-02, 00:34:00,VALID,917.678,VALID,0,VALID,94.5756,VALID,0,VALID,20.2651,VALID,256,VALID,1.72383,
2005-04-02, 00:35:00,VALID,917.699,VALID,0,VALID,94.6926,VALID,0.0679233,VALID,20.2487,VALID,236,VALID,1.29888,
2005-04-02, 00:36:00,VALID,917.705,VALID,0,VALID,94.9634,VALID,0.0339617,VALID,20.2457,VALID,260,VALID,0.900534,
2005-04-02, 00:37:00,VALID,917.683,VALID,0,VALID,94.8515,VALID,0.0339617,VALID,20.2365,VALID,239,VALID,1.18062,
2005-04-02, 00:38:00,VALID,917.704,VALID,0,VALID,94.5743,VALID,0.0169808,VALID,20.2228,VALID,272,VALID,0.88956,
2005-04-02, 00:39:00,VALID,917.705,VALID,0,VALID,94.7574,VALID,0.0169808,VALID,20.2194,VALID,197,VALID,1.03815,
2005-04-02, 00:40:00,VALID,917.694,VALID,0,VALID,94.4357,VALID,0.0169808,VALID,20.2231,VALID,230,VALID,1.07355,
2005-04-02, 00:41:00,VALID,917.689,VALID,0,VALID,94.4611,VALID,0.0169808,VALID,20.2134,VALID,222,VALID,1.07755,
2005-04-02, 00:42:00,VALID,917.674,VALID,0,VALID,94.1369,VALID,0.0169808,VALID,20.2,VALID,219,VALID,1.55636,
2005-04-02, 00:43:00,VALID,917.668,VALID,0,VALID,93.8317,VALID,0.0169808,VALID,20.2395,VALID,223,VALID,0.886624,
2005-04-02, 00:44:00,VALID,917.66,VALID,0,VALID,93.7847,VALID,0.0169808,VALID,20.2422,VALID,255,VALID,1.31658,
2005-04-02, 00:45:00,VALID,917.644,VALID,0,VALID,93.4388,VALID,0.0509425,VALID,20.2516,VALID,243,VALID,1.40323,
2005-04-02, 00:46:00,VALID,917.649,VALID,0,VALID,93.5774,VALID,0,VALID,20.2718,VALID,251,VALID,1.25781,
2005-04-02, 00:47:00,VALID,917.656,VALID,0,VALID,93.7274,VALID,0.0339617,VALID,20.2522,VALID,253,VALID,0.761364,
2005-04-02, 00:48:00,VALID,917.642,VALID,0,VALID,93.4795,VALID,0,VALID,20.2527,VALID,228,VALID,1.8315,
2005-04-02, 00:49:00,VALID,917.645,VALID,0,VALID,93.318,VALID,0.0169808,VALID,20.2584,VALID,233,VALID,1.73691,
2005-04-02, 00:50:00,VALID,917.639,VALID,0,VALID,93.4057,VALID,0,VALID,20.2651,VALID,240,VALID,1.60603,
2005-04-02, 00:51:00,VALID,917.637,VALID,0,VALID,93.5443,VALID,0.0169808,VALID,20.2591,VALID,240,VALID,0.966264,
2005-04-02, 00:52:00,VALID,917.625,VALID,0,VALID,93.791,VALID,0.0339617,VALID,20.2363,VALID,235,VALID,0.875186,
2005-04-02, 00:53:00,VALID,917.607,VALID,0,VALID,93.7554,VALID,0,VALID,20.2174,VALID,235,VALID,1.50963,
2005-04-02, 00:54:00,VALID,917.586,VALID,0,VALID,93.7732,VALID,0,VALID,20.2037,VALID,262,VALID,0.816602,
2005-04-02, 00:55:00,VALID,917.567,VALID,0,VALID,93.8215,VALID,-0.0169808,VALID,20.204,VALID,242,VALID,1.52827,
2005-04-02, 00:56:00,VALID,917.56,VALID,0,VALID,93.9309,VALID,0,VALID,20.2072,VALID,234,VALID,1.24253,
2005-04-02, 00:57:00,VALID,917.536,VALID,0,VALID,93.9703,VALID,-0.0169808,VALID,20.201,VALID,252,VALID,0.342969,
2005-04-02, 00:58:00,VALID,917.541,VALID,0,VALID,94.1178,VALID,0.0169808,VALID,20.1938,VALID,238,VALID,0.362772,
2005-04-02, 00:59:00,VALID,917.543,VALID,0,VALID,94.2399,VALID,0,VALID,20.201,VALID,225,VALID,0.272135,
2005-04-02, 01:00:00,VALID,917.544,VALID,0,VALID,94.4141,VALID,0.0339617,VALID,20.1905,VALID,225,VALID,0,
2005-04-02, 01:01:00,VALID,917.559,VALID,0,VALID,94.5082,VALID,0.0679233,VALID,20.1838,VALID,225,VALID,0.0188643,
2005-04-02, 01:02:00,VALID,917.56,VALID,0,VALID,94.2564,VALID,0.0339617,VALID,20.1779,VALID,225,VALID,0.0929687,
2005-04-02, 01:03:00,VALID,917.556,VALID,0,VALID,94.3683,VALID,0,VALID,20.1943,VALID,280,VALID,0.223214,
2005-04-02, 01:04:00,VALID,917.556,VALID,0,VALID,94.5336,VALID,0.0169808,VALID,20.1908,VALID,311,VALID,0.270312,
2005-04-02, 01:05:00,VALID,917.561,VALID,0,VALID,94.3594,VALID,0.0509425,VALID,20.1876,VALID,352,VALID,0.617188,
2005-04-02, 01:06:00,VALID,917.578,VALID,0,VALID,94.4548,VALID,0,VALID,20.2107,VALID,223,VALID,0.518674,
2005-04-02, 01:07:00,VALID,917.562,VALID,0,VALID,94.5387,VALID,0.0169808,VALID,20.2102,VALID,188,VALID,0.628551,
2005-04-02, 01:08:00,VALID,917.571,VALID,0,VALID,93.1209,VALID,0.0169808,VALID,20.1911,VALID,219,VALID,0.674592,
2005-04-02, 01:09:00,VALID,917.56,VALID,0,VALID,93.0459,VALID,0.0339617,VALID,20.2233,VALID,249,VALID,0.479725,
2005-04-02, 01:10:00,VALID,917.564,VALID,0,VALID,93.6562,VALID,0.0169808,VALID,20.2457,VALID,360,VALID,0.420732,
2005-04-02, 01:11:00,VALID,917.584,VALID,0,VALID,93.2264,VALID,0.0339617,VALID,20.2551,VALID,278,VALID,0.561285,
2005-04-02, 01:12:00,VALID,917.569,VALID,0,VALID,92.6669,VALID,0.0169808,VALID,20.2489,VALID,178,VALID,0.419212,
2005-04-02, 01:13:00,VALID,917.54,VALID,0,VALID,93.0369,VALID,0.0339617,VALID,20.2452,VALID,234,VALID,0.347124,
2005-04-02, 01:14:00,VALID,917.542,VALID,0,VALID,92.8983,VALID,0.0339617,VALID,20.2358,VALID,248,VALID,1.13021,
2005-04-02, 01:15:00,VALID,917.537,VALID,0,VALID,92.3363,VALID,0.0339617,VALID,20.2161,VALID,241,VALID,1.45117,
2005-04-02, 01:16:00,VALID,917.525,VALID,0,VALID,92.8182,VALID,0,VALID,20.233,VALID,221,VALID,0.686612,
2005-04-02, 01:17:00,VALID,917.536,VALID,0,VALID,92.8335,VALID,0.0169808,VALID,20.2137,VALID,216,VALID,0.897905,
2005-04-02, 01:18:00,VALID,917.531,VALID,0,VALID,92.7623,VALID,0,VALID,20.1846,VALID,215,VALID,0.870458,
2005-04-02, 01:19:00,VALID,917.499,VALID,0,VALID,93.2048,VALID,0.0169808,VALID,20.1677,VALID,231,VALID,0.480114,
2005-04-02, 01:20:00,VALID,917.501,VALID,0,VALID,93.2213,VALID,0.0169808,VALID,20.1257,VALID,240,VALID,0.78218,
2005-04-02, 01:21:00,VALID,917.489,VALID,0,VALID,93.6143,VALID,0.0509425,VALID,20.1004,VALID,234,VALID,0.554869,
2005-04-02, 01:22:00,VALID,917.489,VALID,0,VALID,93.6333,VALID,0,VALID,20.0751,VALID,255,VALID,1.254,
2005-04-02, 01:23:00,VALID,917.462,VALID,0,VALID,93.3078,VALID,0.0509425,VALID,20.0199,VALID,253,VALID,1.37003,
2005-04-02, 01:24:00,VALID,917.453,VALID,0,VALID,93.9589,VALID,-0.0169808,VALID,20.004,VALID,208,VALID,0.933949,
2005-04-02, 01:25:00,VALID,917.444,VALID,0,VALID,94.3378,VALID,0.0169808,VALID,19.9618,VALID,224,VALID,0.893864,
2005-04-02, 01:26:00,VALID,917.408,VALID,0,VALID,94.2373,VALID,0.0169808,VALID,19.9131,VALID,214,VALID,0.719922,
2005-04-02, 01:27:00,VALID,917.394,VALID,0,VALID,94.5718,VALID,0.0169808,VALID,19.8975,VALID,223,VALID,0.604936,
2005-04-02, 01:28:00,VALID,917.35,VALID,0,VALID,94.7269,VALID,0.0339617,VALID,19.8679,VALID,240,VALID,0.86471,
2005-04-02, 01:29:00,VALID,917.309,VALID,0,VALID,94.6951,VALID,0.0169808,VALID,19.846,VALID,201,VALID,1.03016,
2005-04-02, 01:30:00,VALID,917.303,VALID,0,VALID,94.5082,VALID,0,VALID,19.8294,VALID,223,VALID,1.42708,
2005-04-02, 01:31:00,VALID,917.276,VALID,0,VALID,94.6481,VALID,0.0169808,VALID,19.8137,VALID,204,VALID,1.65359,
2005-04-02, 01:32:00,VALID,917.25,VALID,0,VALID,94.9075,VALID,0,VALID,19.7944,VALID,235,VALID,1.29371,
2005-04-02, 01:33:00,VALID,917.205,VALID,0,VALID,95.1529,VALID,0.0509425,VALID,19.7454,VALID,252,VALID,1.25221,
2005-04-02, 01:34:00,VALID,917.182,VALID,0,VALID,95.0791,VALID,0,VALID,19.7136,VALID,250,VALID,1.71348,
2005-04-02, 01:35:00,VALID,917.14,VALID,0,VALID,95.172,VALID,0.0169808,VALID,19.6975,VALID,245,VALID,0.719512,
2005-04-02, 01:36:00,VALID,917.135,VALID,0,VALID,95.2712,VALID,0,VALID,19.6714,VALID,247,VALID,0.489453,
2005-04-02, 01:37:00,VALID,917.132,VALID,0,VALID,95.6183,VALID,0,VALID,19.6687,VALID,251,VALID,0.59566,
2005-04-02, 01:38:00,VALID,917.127,VALID,0,VALID,95.9209,VALID,0,VALID,19.6488,VALID,349,VALID,0.430051,
2005-04-02, 01:39:00,VALID,917.148,VALID,0,VALID,96.0417,VALID,0,VALID,19.6394,VALID,335,VALID,0.205842,
2005-04-02, 01:40:00,VALID,917.157,VALID,0,VALID,96.1689,VALID,0,VALID,19.6232,VALID,217,VALID,0.532652,
2005-04-02, 01:41:00,VALID,917.146,VALID,0,VALID,96.2923,VALID,0,VALID,19.6071,VALID,227,VALID,0.450521,
2005-04-02, 01:42:00,VALID,917.153,VALID,0,VALID,96.6241,VALID,0.0169808,VALID,19.5845,VALID,284,VALID,0.608526,
2005-04-02, 01:43:00,VALID,917.115,VALID,0,VALID,96.6979,VALID,0,VALID,19.5914,VALID,315,VALID,0.599927,
2005-04-02, 01:44:00,VALID,917.107,VALID,0,VALID,96.6165,VALID,0.0169808,VALID,19.5815,VALID,239,VALID,0.227519,
2005-04-02, 01:45:00,VALID,917.094,VALID,0,VALID,96.7017,VALID,0,VALID,19.5584,VALID,242,VALID,0.522928,
2005-04-02, 01:46:00,VALID,917.059,VALID,0,VALID,96.7132,VALID,0,VALID,19.5428,VALID,242,VALID,0.462391,
2005-04-02, 01:47:00,VALID,917.059,VALID,0,VALID,96.7793,VALID,0,VALID,19.5333,VALID,311,VALID,0.288504,
2005-04-02, 01:48:00,VALID,917.063,VALID,0,VALID,96.7271,VALID,0,VALID,19.5368,VALID,338,VALID,0.226935,
2005-04-02, 01:49:00,VALID,917.04,VALID,0,VALID,96.7564,VALID,0,VALID,19.5271,VALID,240,VALID,0.661458,
2005-04-02, 01:50:00,VALID,917.036,VALID,0,VALID,96.8988,VALID,0,VALID,19.5072,VALID,217,VALID,0.395089,
2005-04-02, 01:51:00,VALID,917.032,VALID,0,VALID,96.9789,VALID,0,VALID,19.504,VALID,238,VALID,0.477653,
2005-04-02, 01:52:00,VALID,917.026,VALID,0,VALID,97.0107,VALID,0.0169808,VALID,19.4846,VALID,239,VALID,0.378815,
2005-04-02, 01:53:00,VALID,917.025,VALID,0,VALID,97.143,VALID,0.0339617,VALID,19.4814,VALID,225,VALID,0.601396,
2005-04-02, 01:54:00,VALID,917.016,VALID,0,VALID,97.2332,VALID,0,VALID,19.4755,VALID,247,VALID,0.402344,
2005-04-02, 01:55:00,VALID,917.018,VALID,0,VALID,97.4405,VALID,0,VALID,19.4752,VALID,247,VALID,0.106831,
2005-04-02, 01:56:00,VALID,917.004,VALID,0,VALID,97.4647,VALID,0,VALID,19.4625,VALID,247,VALID,0.255035,
2005-04-02, 01:57:00,VALID,916.977,VALID,0,VALID,97.3884,VALID,0.0169808,VALID,19.4494,VALID,244,VALID,0.517578,
2005-04-02, 01:58:00,VALID,916.969,VALID,0,VALID,97.527,VALID,0,VALID,19.4432,VALID,238,VALID,0.355378,
2005-04-02, 01:59:00,VALID,916.962,VALID,0,VALID,97.6961,VALID,0.0169808,VALID,19.4432,VALID,244,VALID,0.174162,
2005-04-02, 02:00:00,VALID,916.945,VALID,0,VALID,97.7292,VALID,0,VALID,19.4434,VALID,256,VALID,0.0863009,
2005-04-02, 02:01:00,VALID,916.936,VALID,0,VALID,97.8868,VALID,0,VALID,19.4335,VALID,256,VALID,0.0211293,
2005-04-02, 02:02:00,VALID,916.918,VALID,0,VALID,97.972,VALID,0,VALID,19.4233,VALID,256,VALID,0.0694041,
2005-04-02, 02:03:00,VALID,916.889,VALID,0,VALID,98.0801,VALID,0,VALID,19.434,VALID,256,VALID,0,
2005-04-02, 02:04:00,VALID,916.879,VALID,0,VALID,98.4006,VALID,0,VALID,19.4461,VALID,256,VALID,0.140115,
2005-04-02, 02:05:00,VALID,916.865,VALID,0,VALID,98.6117,VALID,0,VALID,19.4757,VALID,257,VALID,0.263951,
2005-04-02, 02:06:00,VALID,916.847,VALID,0,VALID,98.6333,VALID,-0.0169808,VALID,19.4851,VALID,333,VALID,0.471236,
2005-04-02, 02:07:00,VALID,916.834,VALID,0,VALID,98.7236,VALID,0,VALID,19.4849,VALID,17,VALID,0.720703,
2005-04-02, 02:08:00,VALID,916.829,VALID,0,VALID,98.8571,VALID,0,VALID,19.4884,VALID,24,VALID,0.684642,
2005-04-02, 02:09:00,VALID,916.823,VALID,0,VALID,99.0084,VALID,0,VALID,19.4951,VALID,25,VALID,0.328125,
2005-04-02, 02:10:00,VALID,916.82,VALID,0,VALID,99.0198,VALID,0.0169808,VALID,19.4787,VALID,26,VALID,0.0589844,
2005-04-02, 02:11:00,VALID,916.816,VALID,0,VALID,99.0249,VALID,-0.0169808,VALID,19.4814,VALID,27,VALID,0.356179,
2005-04-02, 02:12:00,VALID,916.807,VALID,0,VALID,99.0923,VALID,-0.0169808,VALID,19.4916,VALID,28,VALID,0.15625,
2005-04-02, 02:13:00,VALID,916.773,VALID,0,VALID,99.2653,VALID,0,VALID,19.505,VALID,28,VALID,0.367001,
2005-04-02, 02:14:00,VALID,916.765,VALID,0,VALID,99.4318,VALID,-0.0169808,VALID,19.5174,VALID,28,VALID,0.445313,
2005-04-02, 02:15:00,VALID,916.731,VALID,0,VALID,99.5921,VALID,0,VALID,19.547,VALID,28,VALID,0.222124,
2005-04-02, 02:16:00,VALID,916.689,VALID,0,VALID,99.5336,VALID,0,VALID,19.5366,VALID,19,VALID,0.898801,
2005-04-02, 02:17:00,VALID,916.652,VALID,0,VALID,99.4039,VALID,0.0169808,VALID,19.5105,VALID,9,VALID,1.2792,
2005-04-02, 02:18:00,VALID,916.66,VALID,0,VALID,99.3594,VALID,0,VALID,19.4916,VALID,354,VALID,1.08654,
2005-04-02, 02:19:00,VALID,916.676,VALID,0,VALID,99.4026,VALID,0,VALID,19.4658,VALID,325,VALID,0.575648,
2005-04-02, 02:20:00,VALID,916.695,VALID,0,VALID,99.545,VALID,0,VALID,19.4655,VALID,355,VALID,0.26181,
2005-04-02, 02:21:00,VALID,916.695,VALID,0,VALID,99.6556,VALID,0.0169808,VALID,19.4889,VALID,356,VALID,0.089939,
2005-04-02, 02:22:00,VALID,916.69,VALID,0,VALID,99.7752,VALID,0,VALID,19.5048,VALID,24,VALID,0.355556,
2005-04-02, 02:23:00,VALID,916.667,VALID,0,VALID,99.9176,VALID,0.0169808,VALID,19.5174,VALID,12,VALID,0.577943,
2005-04-02, 02:24:00,VALID,916.66,VALID,0,VALID,99.9481,VALID,-0.0169808,VALID,19.5303,VALID,13,VALID,0.951705,
2005-04-02, 02:25:00,VALID,916.658,VALID,0,VALID,99.9944,VALID,-0.0169808,VALID,19.5306,VALID,21,VALID,0.588796,
2005-04-02, 02:26:00,VALID,916.65,VALID,0,VALID,99.999,VALID,0,VALID,19.5308,VALID,25,VALID,0.078869,
2005-04-02, 02:27:00,VALID,916.629,VALID,0,VALID,99.9919,VALID,0,VALID,19.5107,VALID,24,VALID,0.287946,
2005-04-02, 02:28:00,VALID,916.625,VALID,0,VALID,100,VALID,0,VALID,19.5172,VALID,24,VALID,0.704484,
2005-04-02, 02:29:00,VALID,916.6,VALID,0,VALID,100,VALID,0,VALID,19.5266,VALID,27,VALID,0.473611,
2005-04-02, 02:30:00,VALID,916.577,VALID,0,VALID,100,VALID,0.0169808,VALID,19.5179,VALID,40,VALID,0.933408,
2005-04-02, 02:31:00,VALID,916.556,VALID,0,VALID,100,VALID,-0.0169808,VALID,19.5112,VALID,19,VALID,1.09502,
2005-04-02, 02:32:00,VALID,916.534,VALID,0,VALID,100,VALID,0,VALID,19.4849,VALID,15,VALID,1.18405,
2005-04-02, 02:33:00,VALID,916.532,VALID,0,VALID,100,VALID,0,VALID,19.46,VALID,22,VALID,0.71596,
2005-04-02, 02:34:00,VALID,916.507,VALID,0,VALID,100,VALID,0,VALID,19.4399,VALID,25,VALID,0.680903,
2005-04-02, 02:35:00,VALID,916.493,VALID,0,VALID,100,VALID,0,VALID,19.4529,VALID,20,VALID,0.81436,
2005-04-02, 02:36:00,VALID,916.474,VALID,0,VALID,100,VALID,0,VALID,19.4526,VALID,18,VALID,1.05469,
2005-04-02, 02:37:00,VALID,916.456,VALID,0,VALID,100,VALID,0,VALID,19.4496,VALID,21,VALID,0.964367,
2005-04-02, 02:38:00,VALID,916.438,VALID,0,VALID,100,VALID,0,VALID,19.43,VALID,12,VALID,0.957227,
2005-04-02, 02:39:00,VALID,916.413,VALID,0,VALID,100,VALID,0,VALID,19.4171,VALID,23,VALID,1.25972,
2005-04-02, 02:40:00,VALID,916.387,VALID,0,VALID,100,VALID,0,VALID,19.4012,VALID,10,VALID,1.24805,
2005-04-02, 02:41:00,VALID,916.379,VALID,0,VALID,100,VALID,0.0339617,VALID,19.3721,VALID,22,VALID,0.884766,
2005-04-02, 02:42:00,VALID,916.344,VALID,0,VALID,100,VALID,0.0169808,VALID,19.3759,VALID,22,VALID,1.06613,
2005-04-02, 02:43:00,VALID,916.317,VALID,0,VALID,100,VALID,0.0339617,VALID,19.3426,VALID,22,VALID,1.44186,
2005-04-02, 02:44:00,VALID,916.292,VALID,0,VALID,100,VALID,0.0169808,VALID,19.3235,VALID,24,VALID,1.24572,
2005-04-02, 02:45:00,VALID,916.259,VALID,0,VALID,100,VALID,0,VALID,19.32,VALID,9,VALID,1.39621,
2005-04-02, 02:46:00,VALID,916.252,VALID,0,VALID,100,VALID,0,VALID,19.317,VALID,22,VALID,1.15693,
2005-04-02, 02:47:00,VALID,916.25,VALID,0,VALID,100,VALID,0.0339617,VALID,19.3071,VALID,30,VALID,1.00857,
2005-04-02, 02:48:00,VALID,916.244,VALID,0,VALID,100,VALID,0.0679233,VALID,19.3138,VALID,30,VALID,0.915923,
2005-04-02, 02:49:00,VALID,916.243,VALID,0,VALID,100,VALID,-0.0849042,VALID,19.3115,VALID,21,VALID,0.5,
2005-04-02, 02:50:00,VALID,916.236,VALID,0,VALID,100,VALID,-0.101885,VALID,19.2993,VALID,17,VALID,0.700521,
2005-04-02, 02:51:00,VALID,916.243,VALID,0,VALID,100,VALID,-0.101885,VALID,19.2832,VALID,26,VALID,0.659446,
2005-04-02, 02:52:00,VALID,916.229,VALID,0,VALID,100,VALID,-0.0849042,VALID,19.2641,VALID,26,VALID,0.936928,
2005-04-02, 02:53:00,VALID,916.209,VALID,0,VALID,100,VALID,-0.101885,VALID,19.2509,VALID,13,VALID,0.735283,
2005-04-02, 02:54:00,VALID,916.207,VALID,0,VALID,100,VALID,-0.101885,VALID,19.2248,VALID,19,VALID,0.424023,
2005-04-02, 02:55:00,VALID,916.214,VALID,0,VALID,100,VALID,-0.101885,VALID,19.2055,VALID,32,VALID,0.874047,
2005-04-02, 02:56:00,VALID,916.211,VALID,0,VALID,100,VALID,-0.0679233,VALID,19.2251,VALID,21,VALID,0.611421,
2005-04-02, 02:57:00,VALID,916.214,VALID,0,VALID,100,VALID,-0.101885,VALID,19.2027,VALID,11,VALID,1.06631,
2005-04-02, 02:58:00,VALID,916.197,VALID,0,VALID,100,VALID,-0.0849042,VALID,19.1695,VALID,14,VALID,0.831845,
2005-04-02, 02:59:00,VALID,916.189,VALID,0,VALID,100,VALID,-0.101885,VALID,19.1702,VALID,5,VALID,0.607701,
2005-04-02, 03:00:00,VALID,916.186,VALID,0,VALID,100,VALID,-0.101885,VALID,19.161,VALID,9,VALID,0.358333,
2005-04-02, 03:01:00,VALID,916.177,VALID,0,VALID,100,VALID,-0.101885,VALID,19.1476,VALID,15,VALID,0.144804,
2005-04-02, 03:02:00,VALID,916.171,VALID,0,VALID,100,VALID,-0.0849042,VALID,19.1351,VALID,10,VALID,0.494851,
2005-04-02, 03:03:00,VALID,916.159,VALID,0,VALID,100,VALID,-0.118866,VALID,19.1024,VALID,19,VALID,0.808416,
2005-04-02, 03:04:00,VALID,916.164,VALID,0,VALID,100,VALID,-0.0169808,VALID,19.0848,VALID,9,VALID,0.525391,
2005-04-02, 03:05:00,VALID,916.16,VALID,0,VALID,100,VALID,0,VALID,19.0783,VALID,10,VALID,0.625206,
2005-04-02, 03:06:00,VALID,916.158,VALID,0,VALID,100,VALID,0,VALID,19.0751,VALID,13,VALID,0.548735,
2005-04-02, 03:07:00,VALID,916.167,VALID,0,VALID,100,VALID,0.0169808,VALID,19.0749,VALID,19,VALID,0.809048,
2005-04-02, 03:08:00,VALID,916.164,VALID,0,VALID,100,VALID,0.0169808,VALID,19.0813,VALID,25,VALID,0.35902,
2005-04-02, 03:09:00,VALID,916.163,VALID,0,VALID,100,VALID,0.0169808,VALID,19.0724,VALID,15,VALID,0.900436,
2005-04-02, 03:10:00,VALID,916.158,VALID,0,VALID,100,VALID,0,VALID,19.0781,VALID,18,VALID,0.786882,
2005-04-02, 03:11:00,VALID,916.158,VALID,0,VALID,100,VALID,0,VALID,19.0587,VALID,25,VALID,0.693638,
2005-04-02, 03:12:00,VALID,916.153,VALID,0,VALID,100,VALID,0,VALID,19.0689,VALID,16,VALID,0.576853,
2005-04-02, 03:13:00,VALID,916.124,VALID,0,VALID,100,VALID,-0.0169808,VALID,19.0657,VALID,7,VALID,0.613372,
2005-04-02, 03:14:00,VALID,916.126,VALID,0,VALID,100,VALID,0,VALID,19.0403,VALID,29,VALID,0.605469,
2005-04-02, 03:15:00,VALID,916.112,VALID,0,VALID,100,VALID,-0.0339617,VALID,19.0105,VALID,22,VALID,0.80907,
2005-04-02, 03:16:00,VALID,916.106,VALID,0,VALID,100,VALID,-0.0169808,VALID,18.9951,VALID,14,VALID,0.620821,
2005-04-02, 03:17:00,VALID,916.102,VALID,0,VALID,100,VALID,0,VALID,18.9887,VALID,359,VALID,0.53782,
2005-04-02, 03:18:00,VALID,916.08,VALID,0,VALID,100,VALID,0,VALID,18.9783,VALID,13,VALID,0.839844,
2005-04-02, 03:19:00,VALID,916.054,VALID,0,VALID,100,VALID,0,VALID,18.9656,VALID,19,VALID,1.67915,
2005-04-02, 03:20:00,VALID,916.073,VALID,0,VALID,100,VALID,0,VALID,18.9531,VALID,26,VALID,0.896007,
2005-04-02, 03:21:00,VALID,916.067,VALID,0,VALID,100,VALID,0,VALID,18.9561,VALID,18,VALID,0.84304,
2005-04-02, 03:22:00,VALID,916.089,VALID,0,VALID,100,VALID,0,VALID,18.9626,VALID,353,VALID,0.269817,
2005-04-02, 03:23:00,VALID,916.084,VALID,0,VALID,100,VALID,0,VALID,18.9728,VALID,358,VALID,0.106898,
2005-04-02, 03:24:00,VALID,916.076,VALID,0,VALID,100,VALID,-0.0169808,VALID,18.9626,VALID,3,VALID,0.486506,
2005-04-02, 03:25:00,VALID,916.048,VALID,0,VALID,100,VALID,-0.0509425,VALID,18.9688,VALID,6,VALID,0.81686,
2005-04-02, 03:26:00,VALID,916.023,VALID,0,VALID,100,VALID,-0.0169808,VALID,18.9921,VALID,16,VALID,0.697674,
2005-04-02, 03:27:00,VALID,916.023,VALID,0,VALID,100,VALID,-0.0169808,VALID,19.002,VALID,12,VALID,0.582485,
2005-04-02, 03:28:00,VALID,916.017,VALID,0,VALID,100,VALID,-0.0169808,VALID,19.0244,VALID,11,VALID,0.332849,
2005-04-02, 03:29:00,VALID,916.01,VALID,0,VALID,100,VALID,-0.0339617,VALID,19.0433,VALID,9,VALID,0.47218,
2005-04-02, 03:30:00,VALID,916.003,VALID,0,VALID,100,VALID,0,VALID,19.0334,VALID,6,VALID,0.130394,
2005-04-02, 03:31:00,VALID,916.015,VALID,0,VALID,100,VALID,-0.0169808,VALID,19.0244,VALID,7,VALID,0.241044,
2005-04-02, 03:32:00,VALID,916.019,VALID,0,VALID,100,VALID,0,VALID,19.0239,VALID,13,VALID,0.59157,
2005-04-02, 03:33:00,VALID,916.023,VALID,0,VALID,100,VALID,0,VALID,19.017,VALID,28,VALID,0.603561,
2005-04-02, 03:34:00,VALID,916.039,VALID,0,VALID,100,VALID,-0.0849042,VALID,19.008,VALID,20,VALID,0.399023,
2005-04-02, 03:35:00,VALID,916.041,VALID,0,VALID,100,VALID,-0.101885,VALID,19.0417,VALID,19,VALID,0.0492369,
2005-04-02, 03:36:00,VALID,916.045,VALID,0,VALID,100,VALID,-0.118866,VALID,19.0417,VALID,19,VALID,0.15987,
2005-04-02, 03:37:00,VALID,916.032,VALID,0,VALID,100,VALID,-0.101885,VALID,19.0217,VALID,23,VALID,0.825218,
2005-04-02, 03:38:00,VALID,916.012,VALID,0,VALID,100,VALID,-0.0849042,VALID,19.0154,VALID,28,VALID,0.995561,